Regional Weather Roundup
Issued by NWS San Angelo, TX

Home | Current Version | Previous Version | Text Only | Print | Product List | Glossary On
Versions: 1 2 3 4 5 6 7 8 9 10 11 12 13 14 15 16 17 18 19 20 21 22 23 24 25 26 27 28 29 30 31 32 33 34 35 36 37 38 39 40 41 42 43 44 45 46 47 48 49 50
000
ASUS44 KSJT 301410
RWRSJT
WEST CENTRAL TEXAS REGIONAL WEATHER ROUNDUP
NATIONAL WEATHER SERVICE SAN ANGELO TX
900 AM CDT WED JUL 30 2014

NOTE: "FAIR" INDICATES FEW OR NO CLOUDS BELOW 12,000 FEET WITH NO
SIGNIFICANT WEATHER AND/OR OBSTRUCTIONS TO VISIBILITY.

TXZ049-054-064>066-071>073-076>078-098-099-113-114-127-128-139-140-
154-155-168>170-301500
...LOCATIONS ACROSS WEST CENTRAL TEXAS...

CITY           SKY/WX    TMP DP  RH WIND       PRES   REMARKS
SAN ANGELO     MOSUNNY   78  62  57 S13       30.03S
ABILENE        CLOUDY    77  64  64 S15       30.03F
DYESS AFB      CLOUDY    76  65  68 S16       30.01F
JUNCTION       MOSUNNY   76  63  64 CALM      30.07
SWEETWATER     CLOUDY    77  64  63 S10       30.07R
BROWNWOOD      CLOUDY    77  64  65 S8        30.05S
COLEMAN        CLOUDY    77  59  53 S7        30.06S
SONORA         MOSUNNY   79  63  57 S12       30.11S
OZONA          FAIR      77  63  61 S16       30.09S
BRADY          SUNNY     79  57  47 S9        30.06S
$$

TEXAS PANHANDLE/OKLAHOMA PANHANDLE

CITY           SKY/WX    TMP DP  RH WIND       PRES   REMARKS
AMARILLO       CLOUDY    68  66  93 W3        30.11R
BORGER         CLOUDY    68  64  87 SE8       30.09R
CANADIAN       RAIN      67  66  96 S12       30.05F
DALHART        PTSUNNY   72  62  71 N12       30.13R
DUMAS          PTSUNNY   66  64  94 CALM      30.11R
GUYMON         NOT AVBL
HEREFORD       CLOUDY    69  67  94 CALM      30.13R
PAMPA          CLOUDY    63  61  92 SE6       30.12R
PERRYTON       CLOUDY    65  64  95 S15       30.05S
$$

SOUTHERN PANHANDLE/SOUTH PLAINS/ROLLING PLAINS

CITY           SKY/WX    TMP DP  RH WIND       PRES   REMARKS
LUBBOCK        PTSUNNY   73  64  73 S12       30.06F
SNYDER         CLOUDY    74  66  76 S8        30.04S
CHILDRESS      PTSUNNY   67  64  90 SE12      30.03F
SEMINOLE       MOSUNNY   76  56  49 S7        30.06S
$$

PERMIAN BASIN

CITY           SKY/WX    TMP DP  RH WIND       PRES   REMARKS
MIDLAND        PTSUNNY   80  58  46 S15       30.04R
ODESSA         MOSUNNY   80  54  40 S14       30.05R
WINK           MOSUNNY   82  52  35 SE13      30.01R
$$

FAR WEST/SOUTHWEST MOUNTAINS/TRANS PECOS

CITY           SKY/WX    TMP DP  RH WIND       PRES   REMARKS
ALPINE         SUNNY     80  49  34 S10       30.21S
DRYDEN           N/A     82  62  50 NE6       30.03R
EL PASO        PTSUNNY   75  66  73 SE7       30.10R
FORT STOCKTON  MOSUNNY   79  51  37 SE7       30.05S
GUADALUPE PASS SUNNY     75  50  41 W14       30.21S
MARFA          MOSUNNY   73  50  43 SE5       30.22R
PECOS          MOSUNNY   81  50  33 CALM      30.00S
$$

DALLAS/FORT WORTH METROPLEX

CITY           SKY/WX    TMP DP  RH WIND       PRES   REMARKS
DFW AIRPORT    HVY RAIN  75  72  90 E7        30.07S FOG
FTW MEACHAM    LGT RAIN  76  71  85 SE9       30.05S
DAL-EXECUTIVE  LGT RAIN  76  71  85 E8        30.08R
GRAND PRAIRIE  LGT RAIN  75  70  83 NE3       30.10R
ADDISON        LGT RAIN  75  70  83 E9        30.09F
MESQUITE       RAIN      73  72  94 VRB3      30.10R
LANCASTER      RAIN      75  70  83 NE3       30.10R
$$

NORTH CENTRAL TEXAS

CITY           SKY/WX    TMP DP  RH WIND       PRES   REMARKS
SHRMAN/DENISON LGT RAIN  72  68  89 SE7       30.10S
GAINESVILLE    LGT RAIN  70  69  96 E8        30.10S
BRIDGEPORT     CLOUDY    72  68  89 SE8       30.07S
DENTON         LGT RAIN  73  70  90 E9        30.07S
WAXAHACHIE     RAIN      75  69  81 CALM      30.10R
GRANBURY       CLOUDY    78  69  74 SE7       30.06R
$$

WESTERN NORTH TEXAS

CITY           SKY/WX    TMP DP  RH WIND       PRES   REMARKS
WICHITA FALLS  CLOUDY    70  67  90 SE15      30.03F
VERNON         CLOUDY    69  66  90 E7        30.06R
BRECKENRIDGE   CLOUDY    82  64  56 S13       30.03R HAZE
COMANCHE       CLOUDY    79  62  56 S5        30.06R
$$

CENTRAL AND SOUTH CENTRAL TEXAS

CITY           SKY/WX    TMP DP  RH WIND       PRES   REMARKS
AUSTIN/BERGSTM PTSUNNY   78  72  81 S10       30.06R
WACO           CLOUDY    79  70  74 S9        30.05R
HILLSBORO      CLOUDY    79  69  72 SE6       30.07R
TEMPLE         PTSUNNY   75  68  78 S13       30.06R
KILLEEN-GRAY   PTSUNNY   75  72  88 SE8       30.06R
FORT HOOD      PTSUNNY   78  71  79 SE6       30.06R
GEORGETOWN     MOSUNNY   79  72  78 S13       30.06S
LAGO VISTA     FAIR      78  70  75 S9        30.08R
SAN MARCOS     PTSUNNY   79  68  69 S10       30.08R
NEW BRAUNFELS  PTSUNNY   77  71  82 S10       30.05R
RANDOLPH AFB   PTSUNNY   79  71  76 SW7       30.07R
SAN ANTONIO    PTSUNNY   79  71  76 S9        30.06R
STINSON        PTSUNNY   79  72  79 S9        30.04R
PLEASANTON     NOT AVBL
LA GRANGE      MOSUNNY   81  77  86 S5        30.04R
GIDDINGS       MOSUNNY   79  73  83 CALM      30.10R
$$

EAST TEXAS

CITY           SKY/WX    TMP DP  RH WIND       PRES   REMARKS
PARIS          CLOUDY    73  64  73 S5        30.12R
CLARKSVILLE    CLOUDY    74  65  74 CALM      30.11S
TYLER          CLOUDY    76  66  71 S8        30.09R
LONGVIEW       CLOUDY    76  65  68 SE6       30.10R
PALESTINE      NOT AVBL
NACOGDOCHES    MOSUNNY   75  66  73 SE9       30.10R
$$

TEXAS HILL COUNTRY AND EDWARDS PLATEAU

CITY           SKY/WX    TMP DP  RH WIND       PRES   REMARKS
LLANO          PTSUNNY   81  64  57 CALM      30.10S
HORSESHOE BAY  FAIR      77  67  70 S5        30.07R
KERRVILLE      PTSUNNY   74  69  85 S8        30.09R
FREDERICKSBRG  SUNNY     75  65  70 S5        30.09R
ROCKSPRINGS    SUNNY     77  64  65 SE10      30.12S
HONDO          CLOUDY    75  72  90 S9        30.08R
UVALDE         SUNNY     78  72  81 E7        30.06R
DEL RIO        SUNNY     80  66  62 E12       30.01S
$$

SOUTHEAST TEXAS

CITY           SKY/WX    TMP DP  RH WIND       PRES   REMARKS
COLLEGE STN    SUNNY     79  73  82 S6        30.06S
CALDWELL       SUNNY     79  75  89 S5        30.09S
CROCKETT       SUNNY     81  73  78 SE5       30.11R
BRENHAM        MOSUNNY   77  73  88 SE3       30.07R
HUNTSVILLE     SUNNY     80  70  71 S5        30.08R
CONROE         SUNNY     78  72  81 CALM      30.07R
HOUSTON BUSH   PTSUNNY   80  74  81 SE3       30.05S
HOUSTON HOBBY  MOSUNNY   83  75  77 CALM      30.05S
PERLAND        SUNNY     83  74  74 CALM      30.06S
WHARTON        MOSUNNY   81  77  86 SE5       30.05S
$$

THE UPPER TEXAS COAST

CITY           SKY/WX    TMP DP  RH WIND       PRES   REMARKS
ORANGE         SUNNY     78  70  74 E8        30.09R
PORT ARTHUR    SUNNY     81  70  69 E14       30.06S
GALVESTON      PTSUNNY   84  75  74 S5        30.05S
ANGLETON       SUNNY     81  77  88 E3        30.05R
BAY CITY       SUNNY     82  82 100 CALM      30.04S
$$

TEXAS COASTAL BEND, RIO GRANDE PLAINS DEEP SOUTH TEXAS

CITY           SKY/WX    TMP DP  RH WIND       PRES   REMARKS
VICTORIA       MOSUNNY   84  76  76 S10       30.04S
BEEVILLE       CLOUDY    81  75  82 S12       30.03S
ROCKPORT       MOSUNNY   83  74  74 S10       30.03S
PORT ARANSAS   MOSUNNY   82  76  83 S9        30.03S
PORT LAVACA    MOSUNNY   82  76  80 SW7       30.04S
CORPUS CHRISTI MOSUNNY   82  74  76 S13       30.03S
KINGSVILLE NAS MOSUNNY   82  76  81 S12       30.02S
COTULLA        SUNNY     80  71  74 SE13      30.02R
LAREDO         SUNNY     82  72  72 S13       30.03S
BROWNSVILLE    MOSUNNY   83  76  79 S10       30.02S
PORT ISABEL    SUNNY     85  73  67 S16       30.02S
HEBBRONVILLE   SUNNY     78  72  81 SE14      30.03S
MCALLEN        SUNNY     83  74  74 SE14G20   30.01S
WESLACO        SUNNY     82  73  72 S10       30.01S HAZE
FALFURRIAS     SUNNY     60  32  35 S9        30.01S
EDINBURG       SUNNY     83  74  75 SE10      30.02S
$$


USA.gov is the U.S. government's official web portal to all federal, state and local government web resources and services.